Time,TemperatureF,DewpointF,PressureIn,WindDirection,WindDirectionDegrees,WindSpeedMPH,WindSpeedGustMPH,Humidity,HourlyPrecipIn,Conditions,Clouds,dailyrainin,SoftwareType,DateUTC
2013-06-17 08:00:00,64.0,58.0,29.94,SSW,211,2.0,7.0,81,0.00,,,-99.99,,2013-06-17 12:00:00,
2013-06-17 08:33:00,64.0,58.0,29.94,SSW,211,2.0,7.0,81,0.00,,,-99.99,,2013-06-17 12:33:00,
2013-06-17 08:43:00,64.0,58.0,29.94,SSW,211,2.0,7.0,81,0.00,,,-99.99,,2013-06-17 12:43:00,
2013-06-17 08:53:00,64.0,58.0,29.94,SSW,211,2.0,7.0,81,0.00,,,-99.99,,2013-06-17 12:53:00,
2013-06-17 09:00:00,69.0,60.0,29.91,WSW,255,4.0,11.0,73,0.00,,,-99.99,,2013-06-17 13:00:00,
2013-06-17 09:33:00,69.0,60.0,29.91,WSW,255,4.0,11.0,73,0.00,,,-99.99,,2013-06-17 13:33:00,
2013-06-17 09:43:00,69.0,60.0,29.91,WSW,255,4.0,11.0,73,0.00,,,-99.99,,2013-06-17 13:43:00,
2013-06-17 09:53:00,69.0,60.0,29.91,WSW,255,4.0,11.0,73,0.00,,,-99.99,,2013-06-17 13:53:00,
2013-06-17 10:00:00,73.0,62.0,29.91,SW,220,6.0,10.0,68,0.00,,,-99.99,,2013-06-17 14:00:00,
2013-06-17 10:34:00,73.0,62.0,29.91,SW,220,6.0,10.0,68,0.00,,,-99.99,,2013-06-17 14:34:00,
2013-06-17 10:44:00,73.0,62.0,29.91,SW,220,6.0,10.0,68,0.00,,,-99.99,,2013-06-17 14:44:00,
2013-06-17 10:54:00,73.0,62.0,29.91,SW,220,6.0,10.0,68,0.00,,,-99.99,,2013-06-17 14:54:00,
2013-06-17 11:00:00,75.0,62.0,29.88,SSW,203,6.0,12.0,65,0.00,,,-99.99,,2013-06-17 15:00:00,
2013-06-17 11:33:00,75.0,62.0,29.88,SSW,203,6.0,12.0,65,0.00,,,-99.99,,2013-06-17 15:33:00,
2013-06-17 11:43:00,75.0,62.0,29.88,SSW,203,6.0,12.0,65,0.00,,,-99.99,,2013-06-17 15:43:00,
2013-06-17 11:53:00,75.0,62.0,29.88,SSW,203,6.0,12.0,65,0.00,,,-99.99,,2013-06-17 15:53:00,
2013-06-17 12:00:00,78.0,64.0,29.88,SSW,197,2.0,13.0,62,0.00,,,-99.99,,2013-06-17 16:00:00,
2013-06-17 12:33:00,78.0,64.0,29.88,SSW,197,2.0,13.0,62,0.00,,,-99.99,,2013-06-17 16:33:00,
2013-06-17 12:43:00,78.0,64.0,29.88,SSW,197,2.0,13.0,62,0.00,,,-99.99,,2013-06-17 16:43:00,
2013-06-17 12:54:00,78.0,64.0,29.88,SSW,197,2.0,13.0,62,0.00,,,-99.99,,2013-06-17 16:54:00,
2013-06-17 13:00:00,80.0,60.0,29.85,SW,233,5.0,-999.0,50,-99.99,,,-99.99,,2013-06-17 17:00:00,
2013-06-17 13:33:00,80.0,60.0,29.85,SW,233,5.0,-999.0,50,-99.99,,,-99.99,,2013-06-17 17:33:00,
2013-06-17 13:43:00,80.0,60.0,29.85,SW,233,5.0,-999.0,50,-99.99,,,-99.99,,2013-06-17 17:43:00,
2013-06-17 13:52:00,80.0,60.0,29.85,SW,233,5.0,-999.0,50,-99.99,,,-99.99,,2013-06-17 17:52:00,
2013-06-17 15:00:00,76.0,65.0,29.85,East,96,1.0,5.0,70,0.00,,,-99.99,,2013-06-17 19:00:00,
2013-06-17 15:33:00,76.0,65.0,29.85,East,96,1.0,5.0,70,0.00,,,-99.99,,2013-06-17 19:33:00,
2013-06-17 15:43:00,76.0,65.0,29.85,East,96,1.0,5.0,70,0.00,,,-99.99,,2013-06-17 19:43:00,
2013-06-17 15:54:00,76.0,65.0,29.85,East,96,1.0,5.0,70,0.00,,,-99.99,,2013-06-17 19:54:00,
2013-06-17 16:00:00,79.0,64.0,29.85,SSE,166,1.0,10.0,60,0.00,,,-99.99,,2013-06-17 20:00:00,
2013-06-17 16:34:00,79.0,64.0,29.85,SSE,166,1.0,10.0,60,0.00,,,-99.99,,2013-06-17 20:34:00,
2013-06-17 16:43:00,79.0,64.0,29.85,SSE,166,1.0,10.0,60,0.00,,,-99.99,,2013-06-17 20:43:00,
2013-06-17 16:52:00,79.0,64.0,29.85,SSE,166,1.0,10.0,60,0.00,,,-99.99,,2013-06-17 20:52:00,
2013-06-17 18:00:00,81.0,64.0,29.83,NW,316,3.0,10.0,56,0.00,,,-99.99,,2013-06-17 22:00:00,
2013-06-17 18:34:00,81.0,64.0,29.83,NW,316,3.0,10.0,56,0.00,,,-99.99,,2013-06-17 22:34:00,
2013-06-17 18:43:00,81.0,64.0,29.83,NW,316,3.0,10.0,56,0.00,,,-99.99,,2013-06-17 22:43:00,
2013-06-17 18:54:00,81.0,64.0,29.83,NW,316,3.0,10.0,56,0.00,,,-99.99,,2013-06-17 22:54:00,
2013-06-17 22:34:00,58.0,57.0,29.91,NE,39,0.0,0.0,98,0.00,,,-99.99,,2013-06-18 02:34:00,